This is the latest recevied weather packets stored in our database for station/object EA4BCR. If no packets are shown the sender has not sent any weather packets the latest 10 day(s).
| Time | Temp. | Humidity | Pressure | Rain* | Wind** | Luminosity | Snow |
|---|---|---|---|---|---|---|---|
| 1777421210 | 17.22° C | 49% | 1009.2 hPa | - | - | - | - |
| 1777420610 | 17.22° C | 49% | 1009.3 hPa | - | - | - | - |
| 1777420010 | 17.22° C | 49% | 1009.3 hPa | - | - | - | - |
| 1777419410 | 17.22° C | 50% | 1009.2 hPa | - | - | - | - |
| 1777418810 | 16.67° C | 51% | 1009.3 hPa | - | - | - | - |
| 1777418210 | 16.67° C | 52% | 1009.5 hPa | - | - | - | - |
| 1777417610 | 16.67° C | 52% | 1009.6 hPa | - | - | - | - |
| 1777417010 | 16.67° C | 53% | 1009.7 hPa | - | - | - | - |
| 1777416410 | 16.11° C | 52% | 1010 hPa | - | - | - | - |
| 1777415810 | 16.11° C | 53% | 1009.8 hPa | - | - | - | - |
| 1777415210 | 16.67° C | 52% | 1009.8 hPa | - | - | - | - |
| 1777414609 | 16.67° C | 50% | 1009.5 hPa | - | - | - | - |
| 1777414009 | 17.22° C | 50% | 1009.6 hPa | - | - | - | - |
| 1777413409 | 17.22° C | 48% | 1009.4 hPa | - | - | - | - |
| 1777412810 | 17.78° C | 47% | 1009.3 hPa | - | - | - | - |
| 1777412210 | 17.78° C | 47% | 1009.2 hPa | - | - | - | - |
| 1777411610 | 17.78° C | 47% | 1009.3 hPa | - | - | - | - |
| 1777411009 | 18.33° C | 47% | 1009.3 hPa | - | - | - | - |
| 1777410409 | 17.78° C | 47% | 1009.3 hPa | - | - | - | - |
| 1777409809 | 18.33° C | 48% | 1009.2 hPa | - | - | - | - |
| 1777409209 | 18.89° C | 47% | 1009 hPa | - | - | - | - |
| 1777408610 | 19.44° C | 46% | 1008.6 hPa | - | - | - | - |
| 1777408009 | 19.44° C | 45% | 1008.4 hPa | - | - | - | - |
| 1777407409 | 20° C | 45% | 1008.3 hPa | - | - | - | - |
| 1777406809 | 19.44° C | 45% | 1008.2 hPa | - | - | - | - |
* Rain since midnight (hover to see other rain measurements)
** Current wind speed in m/s (hover to see current wind gust speed)